Weather in Velké Hamry

Czech Republic     50°42′59″N   15°18′50″E
temp.,
°C
wind,
m/s
gust,
m/s
humid.,
%
clouds,
%
prec.,
mm/h
press.,
hPa
HPBL,
m
18 april, sun
sun1823:00+1nne1198100 0.1 102171
02:00+2ne1198100 0.1 102154
05:00+2n1299100 0.0 102064
08:00+3nne019691 0.0 101998
11:00+4wnw119292 0.1 1019364
14:00+7wnw1183100 0.6 1018632
17:00+5n129299 0.4 1018182
20:00+4ne119684 0.7 102026
19 april, mon
mon1923:00+3e1196100 0.1 102113
02:00+1e1196100 0.1 102113
05:000ene2194100 0.0 102017
08:00+5ne1287100 0.0 1020106
11:00+7ne3576100 0.0 1019885
14:00+9ne3475100 0.1 10181087
17:00+6n2693100 1.9 1018560
20:00+5nne239891 1.9 1018120
20 april, tue
tue2023:00+3ne229776 0.1 101831
02:00+3ne229833 0.1 101742
05:00+2ne22945 0.0 101719
08:00+6ne258144 0.0 1017396
11:00+9ene345793 0.1 10161707
14:00+10nne235394 0.1 10151519
17:00+9nne346768 0.4 1015925
20:00+5nne228871 0.8 101614
21 april, wed
wed2123:00+3ene119165 0.0 101610
02:00+3ene008873 0.0 101610
05:00+5nnw008783 0.1 101610
08:00+6n028494 0.2 1016287
11:00+9wsw357076 0.6 10151198
14:00+10w456744 1.4 10141193
17:00+8nw378830 1.8 1014687
20:00+5nnw249315 2.3 101597
22 april, thu
thu2223:00+4nnw249448 0.1 1016147
02:00+4wnw3893100 0.3 1016704
05:000nw31092100 0.0 1018716
08:00−1nw498678 0.1 1019736
11:00+1wnw487890 0.1 1021975
14:00+6nw5105599 0.3 10201988
17:00+6nw596096 0.5 10211574
20:00+3nw397986 1.1 1022488